Time,TemperatureF,DewpointF,PressureIn,WindDirection,WindDirectionDegrees,WindSpeedMPH,WindSpeedGustMPH,Humidity,HourlyPrecipIn,Conditions,Clouds,dailyrainin,SoftwareType,DateUTC
2013-03-08 00:00:00,27.0,23.6,30.21,NNW,337,6.0,12.0,87,0.00,,,-99.99,Weather View 32 v60,2013-03-08 05:00:00,
2013-03-08 00:05:00,27.0,23.1,30.21,North,360,7.0,12.0,85,0.00,,,-99.99,Weather View 32 v60,2013-03-08 05:05:00,
2013-03-08 00:10:00,27.0,23.6,30.21,North,360,6.0,10.0,87,0.00,,,-99.99,Weather View 32 v60,2013-03-08 05:10:00,
2013-03-08 00:15:00,26.0,22.9,30.21,North,360,5.0,10.0,88,0.00,,,-99.99,Weather View 32 v60,2013-03-08 05:15:00,
2013-03-08 00:17:00,26.0,22.9,30.21,North,360,5.0,10.0,88,0.00,,,-99.99,Weather View 32 v60,2013-03-08 05:17:00,
2013-03-08 00:20:00,27.0,23.1,30.21,North,360,10.0,11.0,85,0.00,,,-99.99,Weather View 32 v60,2013-03-08 05:20:00,
2013-03-08 00:25:00,26.0,22.9,30.21,NNW,337,4.0,11.0,88,0.00,,,-99.99,Weather View 32 v60,2013-03-08 05:25:00,
2013-03-08 00:30:00,27.0,23.6,30.21,North,360,4.0,11.0,87,0.00,,,-99.99,Weather View 32 v60,2013-03-08 05:30:00,
2013-03-08 00:35:00,26.0,22.9,30.21,NNW,337,9.0,11.0,88,0.00,,,-99.99,Weather View 32 v60,2013-03-08 05:35:00,
2013-03-08 00:40:00,27.0,23.9,30.21,NE,45,5.0,11.0,88,0.00,,,-99.99,Weather View 32 v60,2013-03-08 05:40:00,
2013-03-08 00:45:00,26.0,23.2,30.21,North,360,6.0,11.0,89,0.00,,,-99.99,Weather View 32 v60,2013-03-08 05:45:00,
2013-03-08 00:50:00,26.0,23.2,30.21,North,360,6.0,11.0,89,0.00,,,-99.99,Weather View 32 v60,2013-03-08 05:50:00,
2013-03-08 00:55:00,26.0,23.2,30.21,NW,315,1.0,11.0,89,0.00,,,-99.99,Weather View 32 v60,2013-03-08 05:55:00,
2013-03-08 01:00:00,26.0,23.5,30.21,North,360,6.0,11.0,90,0.00,,,-99.99,Weather View 32 v60,2013-03-08 06:00:00,
2013-03-08 01:05:00,26.0,23.5,30.21,ENE,67,4.0,11.0,90,0.00,,,-99.99,Weather View 32 v60,2013-03-08 06:05:00,
2013-03-08 01:10:00,26.0,23.5,30.21,East,90,2.0,11.0,90,0.00,,,-99.99,Weather View 32 v60,2013-03-08 06:10:00,
2013-03-08 01:15:00,25.0,22.7,30.21,East,90,4.0,11.0,91,0.00,,,-99.99,Weather View 32 v60,2013-03-08 06:15:00,
2013-03-08 01:25:00,24.0,22.3,30.22,ENE,67,5.0,10.0,93,0.00,,,-99.99,Weather View 32 v60,2013-03-08 06:25:00,
2013-03-08 01:30:00,25.0,23.3,30.22,NE,45,3.0,10.0,93,0.00,,,-99.99,Weather View 32 v60,2013-03-08 06:30:00,
2013-03-08 01:35:00,24.0,22.3,30.22,NE,45,4.0,10.0,93,0.00,,,-99.99,Weather View 32 v60,2013-03-08 06:35:00,
2013-03-08 01:40:00,25.0,23.0,30.22,ENE,67,4.0,10.0,92,0.00,,,-99.99,Weather View 32 v60,2013-03-08 06:40:00,
2013-03-08 01:50:00,25.0,23.0,30.23,NE,45,4.0,9.0,92,0.00,,,-99.99,Weather View 32 v60,2013-03-08 06:50:00,
2013-03-08 01:55:00,25.0,23.0,30.23,NNE,22,3.0,9.0,92,0.00,,,-99.99,Weather View 32 v60,2013-03-08 06:55:00,
2013-03-08 02:00:00,25.0,23.3,30.23,NE,45,0.0,9.0,93,0.00,,,-99.99,Weather View 32 v60,2013-03-08 07:00:00,
2013-03-08 02:05:00,24.0,22.0,30.23,ESE,112,3.0,7.0,92,0.00,,,-99.99,Weather View 32 v60,2013-03-08 07:05:00,
2013-03-08 02:10:00,24.0,22.3,30.23,NE,45,2.0,7.0,93,0.00,,,-99.99,Weather View 32 v60,2013-03-08 07:10:00,
2013-03-08 02:15:00,24.0,22.5,30.23,North,360,1.0,7.0,94,0.00,,,-99.99,Weather View 32 v60,2013-03-08 07:15:00,
2013-03-08 02:20:00,24.0,22.3,30.23,ENE,67,4.0,6.0,93,0.00,,,-99.99,Weather View 32 v60,2013-03-08 07:20:00,
2013-03-08 02:25:00,24.0,21.5,30.23,East,90,5.0,7.0,90,0.00,,,-99.99,Weather View 32 v60,2013-03-08 07:25:00,
2013-03-08 02:30:00,24.0,21.5,30.23,East,90,5.0,7.0,90,0.00,,,-99.99,Weather View 32 v60,2013-03-08 07:30:00,
2013-03-08 02:35:00,23.0,21.0,30.23,East,90,7.0,7.0,92,0.00,,,-99.99,Weather View 32 v60,2013-03-08 07:35:00,
2013-03-08 02:40:00,24.0,21.5,30.23,East,90,6.0,7.0,90,0.00,,,-99.99,Weather View 32 v60,2013-03-08 07:40:00,
2013-03-08 02:45:00,24.0,21.5,30.23,East,90,5.0,9.0,90,0.00,,,-99.99,Weather View 32 v60,2013-03-08 07:45:00,
2013-03-08 02:50:00,24.0,21.5,30.23,East,90,5.0,9.0,90,0.00,,,-99.99,Weather View 32 v60,2013-03-08 07:50:00,
2013-03-08 02:55:00,24.0,21.5,30.23,East,90,6.0,9.0,90,0.00,,,-99.99,Weather View 32 v60,2013-03-08 07:55:00,
2013-03-08 03:00:00,24.0,21.5,30.23,East,90,6.0,9.0,90,0.00,,,-99.99,Weather View 32 v60,2013-03-08 08:00:00,
2013-03-08 03:05:00,24.0,21.5,30.23,NE,45,6.0,9.0,90,0.00,,,-99.99,Weather View 32 v60,2013-03-08 08:05:00,
2013-03-08 03:10:00,24.0,21.8,30.23,East,90,6.0,9.0,91,0.00,,,-99.99,Weather View 32 v60,2013-03-08 08:10:00,
2013-03-08 03:15:00,24.0,21.8,30.23,East,90,6.0,9.0,91,0.00,,,-99.99,Weather View 32 v60,2013-03-08 08:15:00,
2013-03-08 03:25:00,23.0,21.0,30.23,East,90,8.0,9.0,92,0.00,,,-99.99,Weather View 32 v60,2013-03-08 08:25:00,
2013-03-08 03:30:00,23.0,21.3,30.23,East,90,7.0,10.0,93,0.00,,,-99.99,Weather View 32 v60,2013-03-08 08:30:00,
2013-03-08 03:35:00,23.0,21.3,30.23,East,90,8.0,10.0,93,0.00,,,-99.99,Weather View 32 v60,2013-03-08 08:35:00,
2013-03-08 03:40:00,23.0,21.3,30.23,SE,135,5.0,10.0,93,0.00,,,-99.99,Weather View 32 v60,2013-03-08 08:40:00,
2013-03-08 03:45:00,23.0,21.5,30.23,East,90,7.0,10.0,94,0.00,,,-99.99,Weather View 32 v60,2013-03-08 08:45:00,
2013-03-08 03:50:00,23.0,21.5,30.23,East,90,7.0,11.0,94,0.00,,,-99.99,Weather View 32 v60,2013-03-08 08:50:00,
2013-03-08 03:55:00,22.0,20.8,30.23,ESE,112,9.0,11.0,95,0.00,,,-99.99,Weather View 32 v60,2013-03-08 08:55:00,
2013-03-08 04:00:00,22.0,20.8,30.23,East,90,7.0,11.0,95,0.00,,,-99.99,Weather View 32 v60,2013-03-08 09:00:00,
2013-03-08 04:05:00,22.0,20.8,30.23,East,90,7.0,11.0,95,0.00,,,-99.99,Weather View 32 v60,2013-03-08 09:05:00,
2013-03-08 04:10:00,23.0,21.8,30.23,East,90,9.0,11.0,95,0.00,,,-99.99,Weather View 32 v60,2013-03-08 09:10:00,
2013-03-08 04:15:00,22.0,20.8,30.23,East,90,7.0,11.0,95,0.00,,,-99.99,Weather View 32 v60,2013-03-08 09:15:00,
2013-03-08 04:25:00,22.0,20.8,30.23,East,90,8.0,11.0,95,0.00,,,-99.99,Weather View 32 v60,2013-03-08 09:25:00,
2013-03-08 04:30:00,22.0,21.0,30.24,ESE,112,7.0,11.0,96,0.00,,,-99.99,Weather View 32 v60,2013-03-08 09:30:00,
2013-03-08 04:35:00,22.0,21.0,30.24,ESE,112,7.0,11.0,96,0.00,,,-99.99,Weather View 32 v60,2013-03-08 09:35:00,
2013-03-08 04:45:00,21.0,20.5,30.24,SE,135,7.0,12.0,98,0.00,,,-99.99,Weather View 32 v60,2013-03-08 09:45:00,
2013-03-08 04:50:00,21.0,20.8,30.25,SE,135,7.0,12.0,99,0.00,,,-99.99,Weather View 32 v60,2013-03-08 09:50:00,
2013-03-08 04:55:00,21.0,20.8,30.25,SE,135,7.0,12.0,99,0.00,,,-99.99,Weather View 32 v60,2013-03-08 09:55:00,
2013-03-08 05:00:00,21.0,20.8,30.25,SE,135,7.0,12.0,99,0.00,,,-99.99,Weather View 32 v60,2013-03-08 10:00:00,
2013-03-08 05:05:00,21.0,20.8,30.25,SE,135,7.0,12.0,99,0.00,,,-99.99,Weather View 32 v60,2013-03-08 10:05:00,
2013-03-08 05:15:00,21.0,20.5,30.25,SE,135,8.0,12.0,98,0.00,,,-99.99,Weather View 32 v60,2013-03-08 10:15:00,
2013-03-08 05:20:00,21.0,20.5,30.25,SE,135,8.0,12.0,98,0.00,,,-99.99,Weather View 32 v60,2013-03-08 10:20:00,
2013-03-08 05:25:00,21.0,20.5,30.25,ESE,112,7.0,12.0,98,0.00,,,-99.99,Weather View 32 v60,2013-03-08 10:25:00,
2013-03-08 05:30:00,21.0,20.5,30.25,SE,135,8.0,12.0,98,0.00,,,-99.99,Weather View 32 v60,2013-03-08 10:30:00,
2013-03-08 05:40:00,21.0,20.5,30.26,SE,135,6.0,12.0,98,0.00,,,-99.99,Weather View 32 v60,2013-03-08 10:40:00,
2013-03-08 05:45:00,21.0,20.5,30.26,SE,135,7.0,12.0,98,0.00,,,-99.99,Weather View 32 v60,2013-03-08 10:45:00,
2013-03-08 05:50:00,21.0,20.5,30.26,SE,135,7.0,12.0,98,0.00,,,-99.99,Weather View 32 v60,2013-03-08 10:50:00,
2013-03-08 05:55:00,21.0,20.5,30.26,SE,135,6.0,12.0,98,0.00,,,-99.99,Weather View 32 v60,2013-03-08 10:55:00,
2013-03-08 06:00:00,21.0,20.5,30.26,ESE,112,7.0,12.0,98,0.00,,,-99.99,Weather View 32 v60,2013-03-08 11:00:00,
2013-03-08 06:05:00,21.0,20.5,30.26,ESE,112,7.0,15.0,98,0.00,,,-99.99,Weather View 32 v60,2013-03-08 11:05:00,
2013-03-08 06:10:00,21.0,20.5,30.26,SE,135,9.0,15.0,98,0.00,,,-99.99,Weather View 32 v60,2013-03-08 11:10:00,
2013-03-08 06:15:00,21.0,20.5,30.26,ESE,112,8.0,15.0,98,0.00,,,-99.99,Weather View 32 v60,2013-03-08 11:15:00,
2013-03-08 06:20:00,21.0,20.5,30.26,ESE,112,7.0,15.0,98,0.00,,,-99.99,Weather View 32 v60,2013-03-08 11:20:00,
2013-03-08 06:30:00,21.0,20.8,30.26,ESE,112,9.0,15.0,99,0.00,,,-99.99,Weather View 32 v60,2013-03-08 11:30:00,
2013-03-08 06:35:00,21.0,20.8,30.26,ESE,112,8.0,15.0,99,0.00,,,-99.99,Weather View 32 v60,2013-03-08 11:35:00,
2013-03-08 06:40:00,21.0,21.0,30.26,ESE,112,9.0,15.0,100,0.00,,,-99.99,Weather View 32 v60,2013-03-08 11:40:00,
2013-03-08 06:45:00,20.0,20.0,30.26,SE,135,6.0,15.0,100,0.00,,,-99.99,Weather View 32 v60,2013-03-08 11:45:00,
2013-03-08 06:50:00,20.0,20.0,30.26,ESE,112,8.0,15.0,100,0.00,,,-99.99,Weather View 32 v60,2013-03-08 11:50:00,
2013-03-08 06:55:00,20.0,20.0,30.26,SE,135,8.0,15.0,100,0.00,,,-99.99,Weather View 32 v60,2013-03-08 11:55:00,
2013-03-08 07:00:00,20.0,20.0,30.27,SE,135,9.0,15.0,100,0.00,,,-99.99,Weather View 32 v60,2013-03-08 12:00:00,
2013-03-08 07:05:00,20.0,20.0,30.27,ESE,112,9.0,15.0,100,0.00,,,-99.99,Weather View 32 v60,2013-03-08 12:05:00,
2013-03-08 07:10:00,20.0,20.0,30.27,ESE,112,10.0,15.0,100,0.00,,,-99.99,Weather View 32 v60,2013-03-08 12:10:00,
2013-03-08 07:15:00,20.0,20.0,30.27,ESE,112,9.0,15.0,100,0.00,,,-99.99,Weather View 32 v60,2013-03-08 12:15:00,
2013-03-08 07:20:00,20.0,20.0,30.27,SE,135,9.0,15.0,100,0.00,,,-99.99,Weather View 32 v60,2013-03-08 12:20:00,
2013-03-08 07:25:00,20.0,20.0,30.27,SE,135,8.0,16.0,100,0.00,,,-99.99,Weather View 32 v60,2013-03-08 12:25:00,
2013-03-08 07:30:00,20.0,20.0,30.27,SE,135,9.0,16.0,100,0.00,,,-99.99,Weather View 32 v60,2013-03-08 12:30:00,
2013-03-08 07:35:00,20.0,20.0,30.27,SE,135,9.0,16.0,100,0.00,,,-99.99,Weather View 32 v60,2013-03-08 12:35:00,
2013-03-08 07:46:00,20.0,20.0,30.28,SE,135,9.0,16.0,100,0.00,,,-99.99,Weather View 32 v60,2013-03-08 12:46:00,
2013-03-08 07:55:00,20.0,20.0,30.28,SE,135,9.0,16.0,100,0.00,,,-99.99,Weather View 32 v60,2013-03-08 12:55:00,
2013-03-08 08:00:00,21.0,21.0,30.28,SE,135,8.0,16.0,100,0.00,,,-99.99,Weather View 32 v60,2013-03-08 13:00:00,
2013-03-08 08:05:00,21.0,20.8,30.28,ESE,112,9.0,16.0,99,0.00,,,-99.99,Weather View 32 v60,2013-03-08 13:05:00,
2013-03-08 08:10:00,22.0,21.3,30.28,ESE,112,9.0,16.0,97,0.00,,,-99.99,Weather View 32 v60,2013-03-08 13:10:00,
2013-03-08 08:15:00,22.0,21.3,30.28,ESE,112,10.0,16.0,97,0.00,,,-99.99,Weather View 32 v60,2013-03-08 13:15:00,
2013-03-08 08:20:00,22.0,21.3,30.28,SE,135,10.0,16.0,97,0.00,,,-99.99,Weather View 32 v60,2013-03-08 13:20:00,
2013-03-08 08:25:00,22.0,21.3,30.28,SE,135,10.0,18.0,97,0.00,,,-99.99,Weather View 32 v60,2013-03-08 13:25:00,
2013-03-08 08:30:00,23.0,21.8,30.28,SE,135,7.0,18.0,95,0.00,,,-99.99,Weather View 32 v60,2013-03-08 13:30:00,
2013-03-08 08:40:00,23.0,21.5,30.27,SE,135,8.0,18.0,94,0.00,,,-99.99,Weather View 32 v60,2013-03-08 13:40:00,
2013-03-08 08:45:00,24.0,22.3,30.27,SE,135,5.0,18.0,93,0.00,,,-99.99,Weather View 32 v60,2013-03-08 13:45:00,
2013-03-08 08:50:00,24.0,22.0,30.27,SE,135,8.0,18.0,92,0.00,,,-99.99,Weather View 32 v60,2013-03-08 13:50:00,
2013-03-08 08:55:00,25.0,22.7,30.27,SE,135,10.0,18.0,91,0.00,,,-99.99,Weather View 32 v60,2013-03-08 13:55:00,
2013-03-08 09:00:00,25.0,22.7,30.27,SE,135,8.0,18.0,91,0.00,,,-99.99,Weather View 32 v60,2013-03-08 14:00:00,
2013-03-08 09:05:00,26.0,23.5,30.27,SE,135,6.0,18.0,90,0.00,,,-99.99,Weather View 32 v60,2013-03-08 14:05:00,
2013-03-08 09:10:00,27.0,23.9,30.27,SE,135,6.0,18.0,88,0.00,,,-99.99,Weather View 32 v60,2013-03-08 14:10:00,
2013-03-08 09:15:00,27.0,23.6,30.27,SE,135,6.0,18.0,87,0.00,,,-99.99,Weather View 32 v60,2013-03-08 14:15:00,
2013-03-08 09:20:00,28.0,24.4,30.27,SE,135,8.0,18.0,86,0.00,,,-99.99,Weather View 32 v60,2013-03-08 14:20:00,
2013-03-08 09:25:00,28.0,23.8,30.27,SE,135,4.0,17.0,84,0.00,,,-99.99,Weather View 32 v60,2013-03-08 14:25:00,
2013-03-08 09:30:00,30.0,25.5,30.27,SE,135,8.0,17.0,83,0.00,,,-99.99,Weather View 32 v60,2013-03-08 14:30:00,
2013-03-08 09:35:00,30.0,25.2,30.27,SE,135,6.0,17.0,82,0.00,,,-99.99,Weather View 32 v60,2013-03-08 14:35:00,
2013-03-08 09:40:00,31.0,25.9,30.27,SE,135,5.0,17.0,81,0.00,,,-99.99,Weather View 32 v60,2013-03-08 14:40:00,
2013-03-08 09:47:00,31.0,25.6,30.27,SE,135,7.0,17.0,80,0.00,,,-99.99,Weather View 32 v60,2013-03-08 14:47:00,
2013-03-08 09:55:00,32.0,25.9,30.27,SE,135,3.0,15.0,78,0.00,,,-99.99,Weather View 32 v60,2013-03-08 14:55:00,
2013-03-08 10:05:00,33.0,25.6,30.26,SE,135,5.0,15.0,74,0.00,,,-99.99,Weather View 32 v60,2013-03-08 15:05:00,
2013-03-08 10:10:00,35.0,26.9,30.26,SE,135,3.0,15.0,72,0.00,,,-99.99,Weather View 32 v60,2013-03-08 15:10:00,
2013-03-08 10:20:00,37.0,27.1,30.26,SE,135,4.0,15.0,67,0.00,,,-99.99,Weather View 32 v60,2013-03-08 15:20:00,
2013-03-08 10:25:00,37.0,26.3,30.26,SE,135,6.0,15.0,65,0.00,,,-99.99,Weather View 32 v60,2013-03-08 15:25:00,
2013-03-08 10:30:00,36.0,26.1,30.25,NW,315,2.0,14.0,67,0.00,,,-99.99,Weather View 32 v60,2013-03-08 15:30:00,
2013-03-08 10:35:00,34.0,25.9,30.25,West,270,5.0,14.0,72,0.00,,,-99.99,Weather View 32 v60,2013-03-08 15:35:00,
2013-03-08 10:45:00,34.0,25.9,30.25,West,270,4.0,14.0,72,0.00,,,-99.99,Weather View 32 v60,2013-03-08 15:45:00,
2013-03-08 10:50:00,36.0,26.8,30.25,West,270,5.0,10.0,69,0.00,,,-99.99,Weather View 32 v60,2013-03-08 15:50:00,
2013-03-08 11:00:00,38.0,27.6,30.24,SW,225,2.0,10.0,66,0.00,,,-99.99,Weather View 32 v60,2013-03-08 16:00:00,
2013-03-08 11:10:00,36.0,27.5,30.24,WSW,247,5.0,10.0,71,0.00,,,-99.99,Weather View 32 v60,2013-03-08 16:10:00,
2013-03-08 11:15:00,35.0,27.5,30.24,West,270,5.0,10.0,74,0.00,,,-99.99,Weather View 32 v60,2013-03-08 16:15:00,
2013-03-08 11:20:00,34.0,26.9,30.24,WSW,247,5.0,10.0,75,0.00,,,-99.99,Weather View 32 v60,2013-03-08 16:20:00,
2013-03-08 11:30:00,33.0,28.1,30.23,West,270,9.0,13.0,82,0.00,,,-99.99,Weather View 32 v60,2013-03-08 16:30:00,
2013-03-08 11:35:00,32.0,27.7,30.23,West,270,8.0,13.0,84,0.00,,,-99.99,Weather View 32 v60,2013-03-08 16:35:00,
2013-03-08 11:40:00,33.0,27.8,30.23,West,270,7.0,13.0,81,0.00,,,-99.99,Weather View 32 v60,2013-03-08 16:40:00,
2013-03-08 11:45:00,32.0,27.4,30.23,West,270,9.0,14.0,83,0.00,,,-99.99,Weather View 32 v60,2013-03-08 16:45:00,
2013-03-08 11:50:00,32.0,27.4,30.23,West,270,9.0,14.0,83,0.00,,,-99.99,Weather View 32 v60,2013-03-08 16:50:00,
2013-03-08 12:00:00,32.0,27.7,30.23,West,270,8.0,14.0,84,0.00,,,-99.99,Weather View 32 v60,2013-03-08 17:00:00,
2013-03-08 12:10:00,32.0,27.7,30.24,West,270,9.0,15.0,84,0.00,,,-99.99,Weather View 32 v60,2013-03-08 17:10:00,
2013-03-08 12:20:00,32.0,27.4,30.23,West,270,10.0,15.0,83,0.00,,,-99.99,Weather View 32 v60,2013-03-08 17:20:00,
2013-03-08 12:30:00,32.0,27.4,30.23,West,270,9.0,15.0,83,0.00,,,-99.99,Weather View 32 v60,2013-03-08 17:30:00,
2013-03-08 12:35:00,32.0,27.7,30.23,West,270,7.0,15.0,84,0.00,,,-99.99,Weather View 32 v60,2013-03-08 17:35:00,
2013-03-08 12:45:00,32.0,27.7,30.22,West,270,8.0,15.0,84,0.00,,,-99.99,Weather View 32 v60,2013-03-08 17:45:00,
2013-03-08 12:50:00,32.0,28.0,30.22,West,270,7.0,15.0,85,0.00,,,-99.99,Weather View 32 v60,2013-03-08 17:50:00,
2013-03-08 13:00:00,33.0,28.7,30.22,West,270,5.0,15.0,84,0.00,,,-99.99,Weather View 32 v60,2013-03-08 18:00:00,
2013-03-08 13:05:00,33.0,27.8,30.22,West,270,6.0,15.0,81,0.00,,,-99.99,Weather View 32 v60,2013-03-08 18:05:00,
2013-03-08 13:15:00,33.0,28.1,30.21,West,270,7.0,12.0,82,0.00,,,-99.99,Weather View 32 v60,2013-03-08 18:15:00,
2013-03-08 13:20:00,33.0,28.4,30.20,NW,315,8.0,12.0,83,0.00,,,-99.99,Weather View 32 v60,2013-03-08 18:20:00,
2013-03-08 13:25:00,34.0,29.1,30.20,NW,315,7.0,12.0,82,0.00,,,-99.99,Weather View 32 v60,2013-03-08 18:25:00,
2013-03-08 13:30:00,33.0,28.1,30.20,NW,315,8.0,12.0,82,0.00,,,-99.99,Weather View 32 v60,2013-03-08 18:30:00,
2013-03-08 13:35:00,33.0,28.4,30.20,WNW,292,7.0,12.0,83,0.00,,,-99.99,Weather View 32 v60,2013-03-08 18:35:00,
2013-03-08 13:40:00,33.0,28.4,30.19,NW,315,8.0,12.0,83,0.00,,,-99.99,Weather View 32 v60,2013-03-08 18:40:00,
2013-03-08 13:45:00,34.0,29.1,30.19,NW,315,8.0,12.0,82,0.00,,,-99.99,Weather View 32 v60,2013-03-08 18:45:00,
2013-03-08 13:50:00,33.0,28.7,30.19,WNW,292,9.0,12.0,84,0.00,,,-99.99,Weather View 32 v60,2013-03-08 18:50:00,
2013-03-08 13:55:00,33.0,28.4,30.19,WNW,292,6.0,12.0,83,0.00,,,-99.99,Weather View 32 v60,2013-03-08 18:55:00,
2013-03-08 14:00:00,33.0,28.7,30.19,WNW,292,7.0,11.0,84,0.00,,,-99.99,Weather View 32 v60,2013-03-08 19:00:00,
2013-03-08 14:05:00,33.0,28.4,30.19,NW,315,8.0,11.0,83,0.00,,,-99.99,Weather View 32 v60,2013-03-08 19:05:00,
2013-03-08 14:10:00,34.0,29.1,30.19,WNW,292,9.0,11.0,82,0.00,,,-99.99,Weather View 32 v60,2013-03-08 19:10:00,
2013-03-08 14:15:00,34.0,29.1,30.19,WNW,292,9.0,11.0,82,0.00,,,-99.99,Weather View 32 v60,2013-03-08 19:15:00,
2013-03-08 14:20:00,34.0,29.4,30.19,WNW,292,6.0,11.0,83,0.00,,,-99.99,Weather View 32 v60,2013-03-08 19:20:00,
2013-03-08 14:30:00,34.0,29.4,30.19,NW,315,7.0,11.0,83,0.00,,,-99.99,Weather View 32 v60,2013-03-08 19:30:00,
2013-03-08 14:35:00,34.0,29.1,30.19,NNW,337,5.0,11.0,82,0.00,,,-99.99,Weather View 32 v60,2013-03-08 19:35:00,
2013-03-08 14:40:00,35.0,29.5,30.18,NNW,337,5.0,11.0,80,0.00,,,-99.99,Weather View 32 v60,2013-03-08 19:40:00,
2013-03-08 14:50:00,36.0,30.7,30.18,NW,315,1.0,11.0,81,0.00,,,-99.99,Weather View 32 v60,2013-03-08 19:50:00,
2013-03-08 14:55:00,38.0,30.8,30.18,West,270,4.0,10.0,75,0.00,,,-99.99,Weather View 32 v60,2013-03-08 19:55:00,
2013-03-08 15:00:00,38.0,29.4,30.18,WNW,292,6.0,10.0,71,0.00,,,-99.99,Weather View 32 v60,2013-03-08 20:00:00,
2013-03-08 15:10:00,38.0,31.1,30.18,WNW,292,6.0,10.0,76,0.00,,,-99.99,Weather View 32 v60,2013-03-08 20:10:00,
2013-03-08 15:15:00,37.0,30.1,30.18,NW,315,4.0,10.0,76,0.00,,,-99.99,Weather View 32 v60,2013-03-08 20:15:00,
2013-03-08 15:20:00,38.0,30.1,30.17,NNW,337,5.0,10.0,73,0.00,,,-99.99,Weather View 32 v60,2013-03-08 20:20:00,
2013-03-08 15:25:00,37.0,30.1,30.17,NW,315,5.0,10.0,76,0.00,,,-99.99,Weather View 32 v60,2013-03-08 20:25:00,
2013-03-08 15:30:00,37.0,30.1,30.17,WNW,292,5.0,9.0,76,0.00,,,-99.99,Weather View 32 v60,2013-03-08 20:30:00,
2013-03-08 15:35:00,36.0,30.1,30.17,WNW,292,7.0,9.0,79,0.00,,,-99.99,Weather View 32 v60,2013-03-08 20:35:00,
2013-03-08 15:40:00,37.0,30.8,30.17,WNW,292,7.0,11.0,78,0.00,,,-99.99,Weather View 32 v60,2013-03-08 20:40:00,
2013-03-08 15:45:00,37.0,30.5,30.17,WNW,292,5.0,11.0,77,0.00,,,-99.99,Weather View 32 v60,2013-03-08 20:45:00,
2013-03-08 15:51:00,38.0,30.8,30.17,WNW,292,1.0,11.0,75,0.00,,,-99.99,Weather View 32 v60,2013-03-08 20:51:00,
2013-03-08 16:00:00,38.0,30.8,30.17,NW,315,2.0,11.0,75,0.00,,,-99.99,Weather View 32 v60,2013-03-08 21:00:00,
2013-03-08 16:05:00,37.0,30.1,30.17,NW,315,4.0,11.0,76,0.00,,,-99.99,Weather View 32 v60,2013-03-08 21:05:00,
2013-03-08 16:10:00,38.0,30.8,30.17,NW,315,6.0,11.0,75,0.00,,,-99.99,Weather View 32 v60,2013-03-08 21:10:00,
2013-03-08 16:15:00,37.0,29.8,30.17,WNW,292,6.0,11.0,75,0.00,,,-99.99,Weather View 32 v60,2013-03-08 21:15:00,
2013-03-08 16:20:00,37.0,31.1,30.17,NNW,337,0.0,11.0,79,0.00,,,-99.99,Weather View 32 v60,2013-03-08 21:20:00,
2013-03-08 16:25:00,37.0,30.1,30.17,NNW,337,5.0,11.0,76,0.00,,,-99.99,Weather View 32 v60,2013-03-08 21:25:00,
2013-03-08 16:30:00,38.0,30.4,30.16,NNW,337,4.0,11.0,74,0.00,,,-99.99,Weather View 32 v60,2013-03-08 21:30:00,
2013-03-08 16:35:00,37.0,30.1,30.16,NW,315,5.0,11.0,76,0.00,,,-99.99,Weather View 32 v60,2013-03-08 21:35:00,
2013-03-08 16:40:00,39.0,31.4,30.15,West,270,0.0,11.0,74,0.00,,,-99.99,Weather View 32 v60,2013-03-08 21:40:00,
2013-03-08 16:45:00,38.0,29.1,30.15,NNW,337,5.0,10.0,70,0.00,,,-99.99,Weather View 32 v60,2013-03-08 21:45:00,
2013-03-08 16:50:00,37.0,29.8,30.15,North,360,4.0,10.0,75,0.00,,,-99.99,Weather View 32 v60,2013-03-08 21:50:00,
2013-03-08 16:55:00,37.0,30.1,30.15,NNW,337,5.0,10.0,76,0.00,,,-99.99,Weather View 32 v60,2013-03-08 21:55:00,
2013-03-08 17:05:00,37.0,30.5,30.15,NNW,337,4.0,10.0,77,0.00,,,-99.99,Weather View 32 v60,2013-03-08 22:05:00,
2013-03-08 17:10:00,36.0,29.5,30.15,NW,315,3.0,10.0,77,0.00,,,-99.99,Weather View 32 v60,2013-03-08 22:10:00,
2013-03-08 17:15:00,37.0,30.5,30.15,North,360,5.0,10.0,77,0.00,,,-99.99,Weather View 32 v60,2013-03-08 22:15:00,
2013-03-08 17:20:00,37.0,30.5,30.15,North,360,5.0,10.0,77,0.00,,,-99.99,Weather View 32 v60,2013-03-08 22:20:00,
2013-03-08 17:25:00,34.0,29.4,30.15,North,360,5.0,10.0,83,0.00,,,-99.99,Weather View 32 v60,2013-03-08 22:25:00,
2013-03-08 17:30:00,35.0,29.1,30.15,NE,45,5.0,10.0,79,0.00,,,-99.99,Weather View 32 v60,2013-03-08 22:30:00,
2013-03-08 17:35:00,33.0,27.5,30.15,North,360,7.0,8.0,80,0.00,,,-99.99,Weather View 32 v60,2013-03-08 22:35:00,
2013-03-08 17:45:00,32.0,28.0,30.15,North,360,6.0,11.0,85,0.00,,,-99.99,Weather View 32 v60,2013-03-08 22:45:00,
2013-03-08 17:52:00,33.0,27.2,30.15,North,360,7.0,11.0,79,0.00,,,-99.99,Weather View 32 v60,2013-03-08 22:52:00,
2013-03-08 18:00:00,33.0,27.2,30.15,North,360,4.0,11.0,79,0.00,,,-99.99,Weather View 32 v60,2013-03-08 23:00:00,
2013-03-08 18:05:00,33.0,27.2,30.15,North,360,4.0,11.0,79,0.00,,,-99.99,Weather View 32 v60,2013-03-08 23:05:00,
2013-03-08 18:10:00,34.0,28.2,30.15,North,360,3.0,11.0,79,0.00,,,-99.99,Weather View 32 v60,2013-03-08 23:10:00,
2013-03-08 18:15:00,34.0,28.2,30.15,North,360,4.0,11.0,79,0.00,,,-99.99,Weather View 32 v60,2013-03-08 23:15:00,
2013-03-08 18:20:00,33.0,27.5,30.15,North,360,7.0,11.0,80,0.00,,,-99.99,Weather View 32 v60,2013-03-08 23:20:00,
2013-03-08 18:25:00,32.0,26.5,30.15,North,360,7.0,11.0,80,0.00,,,-99.99,Weather View 32 v60,2013-03-08 23:25:00,
2013-03-08 18:30:00,32.0,28.6,30.16,North,360,5.0,11.0,87,0.00,,,-99.99,Weather View 32 v60,2013-03-08 23:30:00,
2013-03-08 18:35:00,32.0,29.1,30.16,North,360,4.0,11.0,89,0.00,,,-99.99,Weather View 32 v60,2013-03-08 23:35:00,
2013-03-08 18:40:00,32.0,27.7,30.16,North,360,5.0,11.0,84,0.00,,,-99.99,Weather View 32 v60,2013-03-08 23:40:00,
2013-03-08 18:45:00,32.0,28.3,30.16,North,360,5.0,9.0,86,0.00,,,-99.99,Weather View 32 v60,2013-03-08 23:45:00,
2013-03-08 18:50:00,32.0,28.6,30.16,North,360,4.0,9.0,87,0.00,,,-99.99,Weather View 32 v60,2013-03-08 23:50:00,
2013-03-08 19:00:00,32.0,29.4,30.17,North,360,4.0,9.0,90,0.00,,,-99.99,Weather View 32 v60,2013-03-09 00:00:00,
2013-03-08 19:05:00,31.0,27.9,30.17,North,360,5.0,9.0,88,0.00,,,-99.99,Weather View 32 v60,2013-03-09 00:05:00,
2013-03-08 19:10:00,32.0,28.0,30.17,North,360,4.0,9.0,85,0.00,,,-99.99,Weather View 32 v60,2013-03-09 00:10:00,
2013-03-08 19:15:00,32.0,27.7,30.17,North,360,4.0,9.0,84,0.00,,,-99.99,Weather View 32 v60,2013-03-09 00:15:00,
2013-03-08 19:20:00,32.0,27.1,30.17,North,360,5.0,9.0,82,0.00,,,-99.99,Weather View 32 v60,2013-03-09 00:20:00,
2013-03-08 19:25:00,32.0,26.5,30.17,North,360,3.0,9.0,80,0.00,,,-99.99,Weather View 32 v60,2013-03-09 00:25:00,
2013-03-08 19:30:00,32.0,25.9,30.17,North,360,3.0,8.0,78,0.00,,,-99.99,Weather View 32 v60,2013-03-09 00:30:00,
2013-03-08 19:35:00,32.0,26.2,30.17,North,360,2.0,8.0,79,0.00,,,-99.99,Weather View 32 v60,2013-03-09 00:35:00,
2013-03-08 19:40:00,33.0,28.7,30.17,North,360,1.0,8.0,84,0.00,,,-99.99,Weather View 32 v60,2013-03-09 00:40:00,
2013-03-08 19:45:00,33.0,28.1,30.17,North,360,0.0,8.0,82,0.00,,,-99.99,Weather View 32 v60,2013-03-09 00:45:00,
2013-03-08 19:50:00,33.0,28.7,30.18,North,360,0.0,8.0,84,0.00,,,-99.99,Weather View 32 v60,2013-03-09 00:50:00,
2013-03-08 20:00:00,32.0,26.8,30.18,North,360,5.0,7.0,81,0.00,,,-99.99,Weather View 32 v60,2013-03-09 01:00:00,
2013-03-08 20:05:00,32.0,28.0,30.18,North,360,4.0,7.0,85,0.00,,,-99.99,Weather View 32 v60,2013-03-09 01:05:00,
2013-03-08 20:10:00,32.0,28.0,30.18,North,360,5.0,6.0,85,0.00,,,-99.99,Weather View 32 v60,2013-03-09 01:10:00,
2013-03-08 20:15:00,31.0,26.7,30.18,North,360,5.0,6.0,84,0.00,,,-99.99,Weather View 32 v60,2013-03-09 01:15:00,
2013-03-08 20:20:00,32.0,27.4,30.18,NNE,22,4.0,7.0,83,0.00,,,-99.99,Weather View 32 v60,2013-03-09 01:20:00,
2013-03-08 20:25:00,31.0,25.6,30.18,NNE,22,3.0,7.0,80,0.00,,,-99.99,Weather View 32 v60,2013-03-09 01:25:00,
2013-03-08 20:30:00,32.0,26.5,30.18,NNE,22,1.0,7.0,80,0.00,,,-99.99,Weather View 32 v60,2013-03-09 01:30:00,
2013-03-08 20:40:00,33.0,28.1,30.18,NNE,22,0.0,7.0,82,0.00,,,-99.99,Weather View 32 v60,2013-03-09 01:40:00,
2013-03-08 20:45:00,33.0,26.3,30.18,NNE,22,3.0,7.0,76,0.00,,,-99.99,Weather View 32 v60,2013-03-09 01:45:00,
2013-03-08 20:50:00,33.0,26.3,30.18,NNE,22,3.0,7.0,76,0.00,,,-99.99,Weather View 32 v60,2013-03-09 01:50:00,
2013-03-08 21:00:00,32.0,25.9,30.18,NNE,22,3.0,7.0,78,0.00,,,-99.99,Weather View 32 v60,2013-03-09 02:00:00,
2013-03-08 21:05:00,32.0,26.2,30.18,NNE,22,3.0,7.0,79,0.00,,,-99.99,Weather View 32 v60,2013-03-09 02:05:00,
2013-03-08 21:10:00,32.0,26.2,30.17,NNE,22,0.0,7.0,79,0.00,,,-99.99,Weather View 32 v60,2013-03-09 02:10:00,
2013-03-08 21:15:00,31.0,26.1,30.17,ESE,112,5.0,7.0,82,0.00,,,-99.99,Weather View 32 v60,2013-03-09 02:15:00,
2013-03-08 21:20:00,31.0,26.7,30.17,ESE,112,6.0,9.0,84,0.00,,,-99.99,Weather View 32 v60,2013-03-09 02:20:00,
2013-03-08 21:25:00,30.0,26.6,30.17,ESE,112,7.0,9.0,87,0.00,,,-99.99,Weather View 32 v60,2013-03-09 02:25:00,
2013-03-08 21:35:00,30.0,26.0,30.17,ESE,112,7.0,9.0,85,0.00,,,-99.99,Weather View 32 v60,2013-03-09 02:35:00,
2013-03-08 21:40:00,30.0,26.3,30.17,ESE,112,6.0,10.0,86,0.00,,,-99.99,Weather View 32 v60,2013-03-09 02:40:00,
2013-03-08 21:45:00,29.0,25.9,30.17,SE,135,9.0,10.0,88,0.00,,,-99.99,Weather View 32 v60,2013-03-09 02:45:00,
2013-03-08 21:50:00,29.0,26.4,30.17,ESE,112,9.0,11.0,90,0.00,,,-99.99,Weather View 32 v60,2013-03-09 02:50:00,
2013-03-08 22:00:00,29.0,26.7,30.17,SE,135,7.0,15.0,91,0.00,,,-99.99,Weather View 32 v60,2013-03-09 03:00:00,
2013-03-08 22:05:00,29.0,26.4,30.17,ESE,112,10.0,15.0,90,0.00,,,-99.99,Weather View 32 v60,2013-03-09 03:05:00,
2013-03-08 22:10:00,29.0,26.4,30.18,SE,135,10.0,15.0,90,0.00,,,-99.99,Weather View 32 v60,2013-03-09 03:10:00,
2013-03-08 22:15:00,29.0,26.4,30.18,SE,135,7.0,15.0,90,0.00,,,-99.99,Weather View 32 v60,2013-03-09 03:15:00,
2013-03-08 22:20:00,29.0,25.9,30.17,SE,135,8.0,15.0,88,0.00,,,-99.99,Weather View 32 v60,2013-03-09 03:20:00,
2013-03-08 22:25:00,29.0,25.9,30.17,SE,135,8.0,15.0,88,0.00,,,-99.99,Weather View 32 v60,2013-03-09 03:25:00,
2013-03-08 22:30:00,30.0,26.9,30.17,SE,135,9.0,15.0,88,0.00,,,-99.99,Weather View 32 v60,2013-03-09 03:30:00,
2013-03-08 22:35:00,29.0,26.2,30.17,SE,135,8.0,15.0,89,0.00,,,-99.99,Weather View 32 v60,2013-03-09 03:35:00,
2013-03-08 22:45:00,29.0,26.2,30.17,SE,135,7.0,15.0,89,0.00,,,-99.99,Weather View 32 v60,2013-03-09 03:45:00,
2013-03-08 22:50:00,29.0,26.2,30.17,SE,135,9.0,15.0,89,0.00,,,-99.99,Weather View 32 v60,2013-03-09 03:50:00,
2013-03-08 22:55:00,29.0,26.2,30.17,SE,135,7.0,17.0,89,0.00,,,-99.99,Weather View 32 v60,2013-03-09 03:55:00,
2013-03-08 23:05:00,29.0,26.4,30.16,ESE,112,7.0,17.0,90,0.00,,,-99.99,Weather View 32 v60,2013-03-09 04:05:00,
2013-03-08 23:10:00,29.0,26.4,30.15,SE,135,10.0,17.0,90,0.00,,,-99.99,Weather View 32 v60,2013-03-09 04:10:00,
2013-03-08 23:15:00,29.0,26.4,30.15,SE,135,8.0,17.0,90,0.00,,,-99.99,Weather View 32 v60,2013-03-09 04:15:00,
2013-03-08 23:20:00,29.0,26.4,30.15,SE,135,8.0,17.0,90,0.00,,,-99.99,Weather View 32 v60,2013-03-09 04:20:00,
2013-03-08 23:25:00,29.0,26.4,30.15,SE,135,9.0,17.0,90,0.00,,,-99.99,Weather View 32 v60,2013-03-09 04:25:00,
2013-03-08 23:30:00,29.0,26.4,30.15,SE,135,9.0,17.0,90,0.00,,,-99.99,Weather View 32 v60,2013-03-09 04:30:00,
2013-03-08 23:35:00,29.0,26.4,30.15,SE,135,8.0,17.0,90,0.00,,,-99.99,Weather View 32 v60,2013-03-09 04:35:00,
2013-03-08 23:40:00,29.0,26.4,30.16,SE,135,9.0,17.0,90,0.00,,,-99.99,Weather View 32 v60,2013-03-09 04:40:00,
2013-03-08 23:45:00,29.0,26.2,30.16,SE,135,7.0,17.0,89,0.00,,,-99.99,Weather View 32 v60,2013-03-09 04:45:00,
2013-03-08 23:50:00,30.0,26.9,30.15,SE,135,12.0,17.0,88,0.00,,,-99.99,Weather View 32 v60,2013-03-09 04:50:00,
2013-03-08 23:55:00,30.0,26.9,30.15,SE,135,10.0,17.0,88,0.00,,,-99.99,Weather View 32 v60,2013-03-09 04:55:00,